Regional Weather Roundup
Issued by NWS Burlington, VT

Current Version | Previous Version | Text Only | Print | Product List | Glossary On
Versions: 1 2 3 4 5 6 7 8 9 10 11 12 13 14 15 16 17 18 19 20 21 22 23 24 25 26 27 28 29 30 31 32 33 34 35 36 37 38 39 40 41 42 43 44 45 46 47 48 49 50
000
ASUS41 KBTV 190130
RWRBTV
VERMONT REGIONAL WEATHER ROUNDUP
NATIONAL WEATHER SERVICE BURLINGTON VT
800 PM EST SAT NOV 18 2017

NOTE: "FAIR" INDICATES FEW OR NO CLOUDS BELOW 12,000 FEET WITH NO
SIGNIFICANT WEATHER AND/OR OBSTRUCTIONS TO VISIBILITY.

* THESE REPORTS ARE NOT UNDER NWS QUALITY CONTROL AND/OR DO NOT
  REPORT WEATHER SUCH AS PRECIPITATION AND FOG.

VTZ001>019-190200-
_____VERMONT_____


CITY           SKY/WX    TMP DP  RH WIND       PRES   REMARKS
BURLINGTON     CLOUDY    39  25  57 E5        29.46F
MONTPELIER     CLOUDY    35  26  69 S3        29.55F
MORRISVILLE    CLOUDY    32  24  72 SE5       29.51F WCI  27
ST. JOHNSBURY*   N/A     34  24  67 MISG      29.53F
LYNDONVILLE*   CLOUDY    33  22  64 SE3       29.52F
MIDDLEBURY*    RAIN      38  32  80 S9        29.46F WCI  31
RUTLAND*       LGT RAIN  37  36  93 SE15      29.47F WCI  28
SPRINGFIELD    LGT RAIN  35  32  88 CALM      29.58F
HIGHGATE*      CLOUDY    37  27  66 SE6       29.46F
NEWPORT*       CLOUDY    33  25  72 S5        29.50F WCI  28
BENNINGTON     LGT RAIN  43  38  82 CALM      29.49F
SUTTON*          N/A     30 N/A N/A MISG        N/A
ISLAND POND*     N/A     32 N/A N/A E6          N/A  WCI  26
GALLUP MILLS*    N/A     30 N/A N/A MISG        N/A
UNION VILLAGE*   N/A     32 N/A N/A MISG        N/A

_____LAKE CHAMPLAIN_____


CITY           SKY/WX    TMP DP  RH WIND       PRES   REMARKS
BURTON ISLAND*   N/A     41  32  70 S15         N/A
COLCHESTER RF*   N/A     43  32  65 S25         N/A
DIAMOND ISL*     N/A     39  32  75 S17         N/A  WCI  30

$$

NYZ007-026>031-035-052-083-087-190200-
_____NORTHERN NEW YORK_____


CITY           SKY/WX    TMP DP  RH WIND       PRES   REMARKS
PLATTSBURGH    CLOUDY    41  29  62 S9        29.44F
SARANAC LAKE   RAIN      35  34  96 CALM      29.36F FOG
MASSENA        CLOUDY    35  29  78 E7        29.42F WCI  29
OGDENSBURG*    LGT RAIN  34  32  91 NE5       29.35F WCI  30
POTSDAM*       MIX PCPN  34  34 100 E5        29.36F WCI  30
STARK FALLS*     N/A     36 N/A N/A SE8         N/A  WCI  29
WATERTOWN      LGT RAIN  42  41  96 SE6       29.31F
FT DRUM        LGT RAIN  38  35  91 SE17      29.32F WCI  28
ALBANY         LGT RAIN  43  39  86 S14G22    29.49F
GLENS FALLS    LGT RAIN  34  33  96 CALM      29.48F

$$
NHZ002-005-011-190200-
_____NEW HAMPSHIRE_____


CITY           SKY/WX    TMP DP  RH WIND       PRES   REMARKS
LEBANON        CLOUDY    36  28  73 CALM      29.56F
KEENE          LGT RAIN  34  33  96 CALM      29.59S
MT WASHINGTON  FRZ RAIN  25  25 100 SW29G45     N/A  VSB 0   WCI   8
PLYMOUTH       CLOUDY    33  27  77 CALM      29.61F
WHITEFIELD     MIX PCPN  32  31  96 CALM      29.55F

$$

_____REGIONAL QUEBEC LOCATIONS_____


CITY           SKY/WX    TMP DP  RH WIND       PRES   REMARKS
MONTREAL       CLOUDY    32  23  69 NE13      29.46F WCI  22
QUEBEC CITY    CLOUDY    30  21  69 E14G22    29.60F WCI  20
SHERBROOKE     LGT RAIN  36  21  55 SE12      29.51F WCI  27

_____REGIONAL ONTARIO LOCATIONS_____


CITY           SKY/WX    TMP DP  RH WIND       PRES   REMARKS
OTTAWA         FLURRIES  28  23  80 NE13      29.37F WCI  18

______KEY______
VSB  - VISIBILITY IN MILES
WCI  - WIND CHILL INDEX
HX   - HEAT INDEX
$$
NNNN



USA.gov is the U.S. government's official web portal to all federal, state and local government web resources and services.